Location: Cahas Mountain Overlook
(37.0833°N, 80.1000°W)
Time: 14:38:50
(UTC-05:00)

S-56A Canister/Altair - Pass Details

Date: 08 December 2023
Orbit: 639 x 2488 km, 38.9° (Epoch: 03 March)

Event Time Altitude Azimuth Distance (km) Brightness Sun altitude
Rises 10:39:53 0° 241° (WSW) 3,699 11.1 26.3°
Reaches altitude 10° 10:42:52 10° 238° (WSW) 2,521 10.4 26.6°
Maximum altitude 10:48:24 60° 159° (SSE) 813 8.8 27.0°
Drops below altitude 10° 10:52:51 10° 79° (E) 2,041 9.9 27.3°
Sets 10:55:04 0° 76° (ENE) 2,931 10.6 27.5°
